SL-14 DEB, 45653

Orbit data source: Space-Track

SL-14 DEB, 45653 is space debris in LEO originally from a launch on Thu, 15 Aug 1991 UTC launched from the Plesetsk Missile And Space Complex (PKMTR). Debris objects in space refer to the collection of defunct objects orbiting the Earth. Examples of debris include non-operational satellites, rocket bodies, and fragments generated from explosions, collisions, or faulty payload assembly.

Loading next visibility...
Identifier
45653, 1991-056CX
Orbit
LEO
Country
Flag of CISCIS
Related business
Manufacturer
Unknown
Mission
Spacecraft
Bus & Motor
Unknown
Mass
Unknown
Launch date (UTC)
1991-08-15 (35 years ago)
Launch vehicle
Unknown
Launch site
Plesetsk Missile And Space Complex (PKMTR)
Object type
Payload
Rocket body
Debris
Shape & HBR
Unknown shape, 0.1 m
Radar Cross Section
Small (<0.1 m²)

Expand to show TLE details & history
Last TLE update: 1 day ago

TLE from 1 day ago
0 SL-14 DEB
1 45653U 91056CX  26256.82188741  .00000702  00000-0  13254-2 0  9990
2 45653  82.5573  29.5197 0066633  57.0200 303.7314 13.36234862315587
Epoch: 2026-09-13T19:43Z
TLE epoch observation values (Epoch: 2026-09-13T19:43:31.072Z)
Latitude
-0.00007°
Longitude
100.82919°
Altitude
1,098.643 km
Speed
7.316 km/s
True Right ascension
01h 58m 04s
True Declination
0° 00' 00"
Sunlit
Object was in full shadow at epoch
Visualization orbit readout
Latitude
Unknown
Longitude
Unknown
Altitude
Unknown
Speed
Unknown
Apparent Right ascension
Unknown
Apparent Declination
Unknown
Sunlit
N/A
Visualization observer readout
Local Sidereal Time
13:36:49
Azimuth
Unknown
Elevation
Unknown
Doppler factor
Unknown
Orbital elements
Apogee altitude
1,170.521 km
Perigee altitude
1,070.589 km
Semi-major axis
7,498.692 km
Eccentricity
0.00666
Inclination
82.5573°
RAAN
29.5197°
Arg. of periapsis
57.02°
True anomaly
303.09345°
Mean anomaly
303.7314°
Eccentric anomaly
303.41272°
Mean motion
3.34245 °/min
Orbital period
107.71 mins
BSTAR
0.0013254
Loading maneuver chart data...
Computing Atmospheric mass density...
Loading historical data...
Loading historical data...
Loading historical data...
Loading historical data...
Loading historical data...
Loading historical data...
Loading historical data...

Documentation

Showing up to 5 results
|